CST,Max TemperatureF,Mean TemperatureF,Min TemperatureF,Max Dew PointF,MeanDew PointF,Min DewpointF,Max Humidity, Mean Humidity, Min Humidity, Max Sea Level PressureIn, Mean Sea Level PressureIn, Min Sea Level PressureIn, Max VisibilityMiles, Mean VisibilityMiles, Min VisibilityMiles, Max Wind SpeedMPH, Mean Wind SpeedMPH, Max Gust SpeedMPH,PrecipitationIn, CloudCover, Events, WindDirDegrees
2014-1-1,1,-12,-25,-11,-20,-31,84,71,47,30.44,30.39,30.35,10,10,10,5,1,,0.00,0,,330
2014-1-2,3,-13,-29,-11,-22,-35,91,72,43,30.39,30.35,30.24,10,10,10,5,0,,0.00,0,,344
2014-1-3,17,-6,-29,16,-3,-35,100,88,75,30.23,29.74,29.36,10,4,0,20,4,29,0.05,1,Snow,190
2014-1-4,17,3,-11,16,1,-17,100,78,62,30.09,29.75,29.34,10,8,2,14,4,23,0.01,0,Snow,286
2014-1-5,-7,-16,-25,-18,-24,-33,84,70,54,30.23,30.15,30.08,10,10,10,10,3,23,0.00,0,Snow,286
2014-1-6,-14,-20,-27,-24,-30,-35,76,66,58,30.09,29.99,29.90,10,10,4,10,4,23,0.00,0,Snow,278
2014-1-7,-4,-14,-23,-15,-20,-29,77,71,59,30.10,29.97,29.87,10,10,5,9,4,18,0.00,0,,277
2014-1-8,6,-8,-25,-8,-14,-29,92,73,48,30.35,30.25,30.11,10,10,10,10,3,21,0.00,0,,292
2014-1-9,14,-9,-32,10,-8,-36,100,83,72,30.32,30.08,29.83,10,10,4,10,2,18,0.00,1,Snow,195
2014-1-10,24,14,3,25,20,1,100,99,92,29.82,29.64,29.42,10,3,1,17,5,22,0.00,6,Snow,191
2014-1-11,28,24,21,27,24,19,100,95,86,29.52,29.43,29.37,10,8,1,9,3,20,0.00,3,Snow,274
2014-1-12,30,22,15,30,25,16,100,99,93,29.52,29.37,29.26,10,7,0,14,3,17,0.01,3,Fog,193
2014-1-13,28,13,-2,27,16,-2,100,84,64,29.59,29.48,29.35,10,10,10,13,3,22,0.00,1,,274
2014-1-14,14,4,-5,7,2,-8,100,82,67,29.98,29.80,29.57,10,10,10,9,2,17,0.00,0,,329
2014-1-15,12,2,-7,10,0,-9,100,85,67,29.99,29.73,29.24,10,8,0,17,4,24,0.02,1,Snow,206
2014-1-16,24,15,6,23,9,1,100,88,79,29.73,29.41,29.18,10,4,1,14,4,25,0.04,0,Snow,315
2014-1-17,15,2,-11,5,-2,-15,92,80,58,29.92,29.85,29.74,10,10,7,13,6,24,0.00,0,,328
2014-1-18,19,4,-11,18,4,-15,100,81,58,29.83,29.71,29.42,10,8,2,9,1,17,0.00,1,Snow,216
2014-1-19,26,16,6,23,15,1,93,83,68,29.69,29.46,29.34,10,10,7,10,4,16,0.00,2,Snow,287
2014-1-20,6,-2,-13,1,-12,-18,85,66,43,30.32,30.05,29.69,10,9,3,12,4,20,0.00,0,Snow,329
2014-1-21,3,-10,-23,-2,-14,-27,91,77,56,30.33,30.15,29.87,10,8,2,8,1,,0.00,0,Snow,208
2014-1-22,0,-4,-9,-8,-11,-17,85,72,60,30.33,29.99,29.81,10,8,2,16,6,29,0.00,0,Snow,318
2014-1-23,0,-9,-18,-11,-17,-26,84,71,55,30.52,30.36,29.91,10,10,10,13,6,18,0.00,0,,268
2014-1-24,24,10,-5,21,9,-11,100,84,57,29.87,29.46,29.25,10,7,2,16,8,30,0.00,1,Snow,245
2014-1-25,8,-2,-11,-2,-11,-17,78,66,55,29.68,29.60,29.40,10,10,5,14,7,30,0.00,0,,291
2014-1-26,6,-2,-9,1,-8,-17,92,75,60,29.82,29.45,29.25,10,5,1,14,3,31,0.01,2,Snow,312
2014-1-27,-5,-14,-22,-17,-21,-29,77,68,55,30.15,30.06,29.82,10,9,2,14,7,31,0.00,0,Snow,280
2014-1-28,-2,-11,-20,-9,-18,-27,76,70,60,30.10,29.95,29.76,10,10,10,13,5,22,0.00,0,,254
2014-1-29,19,4,-11,10,-2,-15,84,70,56,29.79,29.64,29.44,10,10,10,17,6,22,0.00,0,,210
2014-1-30,17,5,-9,10,-4,-15,79,65,52,29.85,29.61,29.45,10,10,10,9,3,18,0.00,0,,285
2014-1-31,6,-8,-22,-6,-14,-26,92,74,52,29.96,29.91,29.85,10,10,10,13,2,17,0.00,0,,219